Погода в Коктюле

Россия / Тюменская область     56°44′55″N   66°33′18″E
темп.,
°C
ветер,
м/с
пор.,
м/с
влажн.,
%
обл.,
%
осадки,
мм/ч
давл.,
гПа
погр.,
м
28 февраля, вс
вс2823:00−22юв499380 0.0 1023228
02:00−19вюв51095100 0.2 1020283
05:00−19вюв51094100 0.3 1018325
08:00−19вюв51192100 0.1 1016355
11:00−17вюв5993100 0.3 1015396
14:00−15в5993100 0.3 1014492
17:00−15в5993100 0.7 1013515
20:00−16всв41093100 0.1 1012455
1 марта, пн
пн123:00−17всв5994100 0.3 1012405
02:00−18св4895100 0.1 1012394
05:00−19св479698 0.2 1013294
08:00−19ссв379793 0.1 1014271
11:00−17ссв359495 0.1 1015315
14:00−14с3490100 0.1 1015395
17:00−15с2394100 0.1 101695
20:00−19ссв1210095 0.0 101720
2 марта, вт
вт223:00−20всв0010096 0.1 101820
02:00−22юз1110080 0.0 101720
05:00−22юз1110081 0.0 101720
08:00−20ю129989 0.0 101620
11:00−15ююз239191 0.1 1015271
14:00−12ююз3488100 0.0 1014482
17:00−13ю2492100 0.1 1013183
20:00−17ю349683 0.0 101343
3 марта, ср
ср323:00−18ю359879 0.0 101385
02:00−20ю369867 0.0 101198
05:00−20ююв479766 0.0 1011143
08:00−17ююв4109496 0.0 1010270
11:00−14ю599198 0.0 1009385
14:00−12ю599299 0.1 1008489
17:00−11ю6119399 0.4 1007529
20:00−10ю51193100 0.3 1006496
4 марта, чт
чт423:00−9ю51193100 0.6 1005441
02:00−8ююв51194100 0.3 1002450
05:00−6ююв51194100 0.8 1001517
08:00−5ююв51195100 0.5 999493
11:00−2ююв5996100 1.6 997613
14:00−1ююз5793100 0.8 997711
17:00−3ююз5991100 1.4 997450
20:00−7ююз359683 0.0 99992